Temperature
7 5 5 6 6 7 7 7 7 7 7 7 6 6 7 7 7 7 7 8 8 9 9 8 9 9 9 9 9 9 9 9 9 9 9 9 9 9 9 9 9 9 9 9
5 5 6 6 7 7 7 7 7 7 7 7 6 6 6 6 6 7 7 8 8 8 8 8 8 8 8 8 8 8 8 8 8 8 8 8 8 8 8 8 8 8 8 9
5 6 7 7 6 6 6 6 6 6 6 6 6 6 7 7 6 7 7 8 8 8 8 8 8 8 8 8 8 8 7 7 7 7 7 7 8 8 8 8 8 7 8 8
5 6 6 6 6 6 6 6 7 6 5 5 5 5 6 6 6 6 7 7 8 8 8 8 8 8 8 7 7 7 7 7 7 7 7 7 7 7 7 7 7 7 7 7
5 6 6 6 6 6 6 6 6 6 5 5 5 5 6 5 7 7 6 7 8 8 8 8 8 8 7 7 7 7 7 6 6 6 6 6 6 6 6 6 6 6 6 6
5 6 6 6 6 6 6 6 5 4 4 5 5 5 5 5 7 7 7 8 8 8 8 8 8 7 7 7 7 7 6 6 6 6 6 6 6 6 5 6 6 6 6 6
5 6 6 6 6 6 6 5 4 5 4 5 5 4 5 6 6 6 7 8 8 8 8 8 8 7 7 7 7 6 6 6 6 6 5 5 5 5 5 5 5 5 5 5
5 5 6 6 6 6 6 6 5 6 5 4 4 4 5 6 7 7 7 8 8 8 8 8 8 8 7 7 7 6 6 6 6 5 5 5 5 5 4 4 4 4 4 4
5 5 6 6 6 6 6 4 5 4 4 4 4 4 5 6 6 6 7 7 8 9 8 8 8 7 7 7 7 6 6 6 5 5 5 5 4 4 4 4 4 3 3 3
6 5 6 6 6 6 6 4 3 4 5 5 5 5 5 7 7 6 6 7 8 8 8 8 8 7 7 7 6 6 6 6 5 5 5 4 4 4 4 3 3 3 3 3
6 5 5 5 5 5 5 5 4 3 4 5 5 6 6 6 7 6 6 7 8 9 8 8 8 7 7 7 6 6 6 5 5 5 4 4 4 3 3 3 3 3 2 2
5 4 4 5 5 5 5 5 4 5 4 3 4 6 7 5 5 6 6 8 9 9 8 8 8 7 7 7 6 6 6 5 5 4 4 4 3 3 3 3 3 2 2 2
5 4 5 6 5 5 5 5 4 4 4 3 3 6 6 5 6 7 7 8 8 8 8 8 7 7 7 7 6 6 6 5 5 4 4 3 3 3 3 3 2 2 2 2
5 4 4 6 6 5 5 5 4 4 3 3 4 5 6 6 5 6 7 8 8 8 8 8 7 7 7 7 6 6 5 5 4 4 4 3 3 3 2 2 2 2 2 1
5 4 3 3 4 4 4 5 4 4 4 4 5 4 6 6 5 7 7 8 7 8 8 7 7 7 7 7 6 6 5 5 4 4 3 3 3 2 2 2 2 1 1 1
3 4 3 3 4 3 3 4 4 4 4 4 5 5 7 7 6 6 7 7 7 8 8 8 7 7 7 6 6 6 5 5 4 4 3 3 3 2 2 2 1 1 1 1
2 3 3 3 2 3 4 4 4 4 3 4 4 5 5 5 5 6 7 7 7 8 8 8 7 7 7 6 6 6 5 5 4 4 3 3 2 2 2 1 1 1 1 0
2 3 3 2 3 4 6 6 4 4 4 4 4 5 4 5 6 7 8 8 8 8 8 7 7 7 7 6 6 5 5 4 4 4 3 3 2 2 2 1 1 1 0 0
1 3 3 2 2 3 5 5 4 4 5 5 4 5 5 6 5 7 8 8 8 8 7 7 7 6 6 6 6 5 5 4 4 3 3 3 2 2 1 1 1 0 -0 -0
1 2 2 2 3 4 7 6 6 5 6 6 5 5 5 5 4 6 8 8 7 7 7 7 6 6 6 6 5 5 4 4 4 3 3 2 2 1 1 1 0 -0 -0 -1
2 2 2 2 3 3 4 5 6 6 7 8 7 7 6 5 6 7 7 7 7 7 6 6 6 6 5 5 5 4 4 4 3 3 2 2 2 1 1 0 0 -0 -1 -1
2 2 2 2 3 4 5 4 4 6 7 7 7 7 6 6 6 7 7 6 6 6 6 6 5 5 5 5 4 4 4 3 3 2 2 2 1 1 0 0 -0 -1 -1 -1
1 2 2 3 5 6 6 6 7 7 6 7 7 6 6 6 6 6 6 6 6 6 6 5 5 5 4 4 4 4 3 3 2 2 2 1 1 0 0 -0 -1 -1 -1 -2
1 1 1 1 2 4 6 6 7 7 6 6 6 6 5 5 5 5 5 5 5 5 5 5 5 4 4 4 4 3 3 2 2 2 1 1 0 0 -0 -1 -1 -1 -2 -2
2 1 0 1 2 4 6 6 6 6 6 6 5 5 5 4 4 4 5 5 5 5 5 4 4 4 4 4 3 3 2 2 2 1 1 0 0 -0 -1 -1 -2 -2 -2 -3
1 2 2 3 5 4 5 6 5 5 5 5 4 4 4 4 4 4 4 4 4 4 4 4 4 4 3 3 3 2 2 2 1 1 1 0 -0 -1 -1 -2 -2 -2 -3 -3
Wind_Speed
6 8 5 2 2 4 6 5 3 1 2 2 3 6 9 5 4 6 5 5 4 4 2 0 1 2 3 5 6 6 7 7 6 4 4 4 4 5 5 6 10 11 11 10
8 6 3 2 5 6 6 5 2 2 3 2 3 7 7 5 5 6 6 6 6 3 2 1 1 2 3 4 5 5 6 6 6 4 3 2 3 3 3 5 9 11 11 10
7 1 2 5 6 7 5 3 2 1 4 4 4 7 4 2 2 3 5 5 5 6 5 3 2 1 2 3 4 4 5 6 6 5 3 3 3 3 4 6 6 9 11 10
5 4 4 6 5 4 2 1 2 2 4 4 4 4 6 4 4 5 6 5 6 5 4 3 3 3 2 3 2 3 4 4 5 5 4 4 3 3 4 5 5 7 9 9
4 3 4 4 2 2 2 2 3 2 2 3 1 2 8 3 5 6 6 7 7 6 5 5 4 4 3 2 2 2 3 4 4 4 4 3 3 3 3 4 6 6 6 8
3 2 2 1 2 2 2 4 5 4 4 2 2 3 7 5 7 5 5 6 7 7 6 5 4 3 3 2 2 2 2 3 4 4 3 3 3 4 4 5 6 6 5 5
5 4 2 1 3 4 5 5 4 5 4 4 1 3 9 8 7 7 7 7 7 6 6 6 5 5 4 3 3 2 2 3 3 3 3 3 3 3 3 4 5 5 5 5
3 3 3 1 1 2 2 4 4 2 3 5 3 6 8 6 5 6 6 6 5 6 6 7 6 6 5 5 4 3 3 3 2 2 2 3 3 2 2 3 3 4 4 4
2 2 2 1 0 3 3 2 3 4 0 4 6 7 9 3 4 4 4 4 6 7 7 7 6 6 6 5 5 4 4 3 3 2 2 2 2 2 3 3 3 3 4 4
3 0 2 1 2 2 2 5 4 3 1 4 7 6 5 6 5 4 5 6 7 6 6 7 6 7 6 6 5 4 4 4 3 2 2 2 2 2 3 3 4 4 5 5
2 2 3 1 4 5 3 3 3 3 3 3 5 8 6 7 6 6 7 7 7 7 8 7 7 6 6 5 4 4 4 4 3 3 2 2 2 3 3 3 4 4 4 5
2 3 3 5 3 3 5 5 6 4 4 4 3 8 5 6 6 6 7 7 7 7 7 7 6 5 5 6 5 5 5 5 4 3 2 2 2 2 2 3 4 4 4 5
3 2 3 5 3 0 3 4 5 4 3 5 4 9 3 2 4 5 6 8 7 7 7 6 6 6 6 6 6 5 5 5 4 3 3 2 2 2 3 3 4 4 4 4
4 3 5 6 4 3 5 5 6 6 5 6 10 13 11 9 9 9 9 9 8 8 7 7 7 7 7 6 6 6 6 5 4 3 3 3 3 3 3 3 3 3 3 3
3 3 5 8 8 7 9 11 10 12 11 10 10 10 17 11 10 10 10 9 8 8 8 8 8 7 6 6 6 6 6 5 4 4 4 4 4 3 3 2 3 3 3 3
2 2 3 5 6 7 11 15 15 15 13 16 16 19 17 10 7 8 9 9 10 10 9 9 8 7 7 7 7 6 6 5 4 5 5 4 3 3 3 3 2 2 2 3
1 1 2 5 6 7 10 11 12 8 8 10 15 14 9 8 9 9 9 9 10 11 9 9 8 8 8 7 7 7 7 5 5 5 5 4 3 3 3 3 2 2 2 2
5 4 2 4 7 7 7 1 7 8 9 12 11 11 9 10 9 9 9 10 10 9 8 8 7 7 6 6 5 5 5 5 5 5 5 4 4 4 3 2 3 3 2 2
6 5 2 2 5 10 10 4 5 6 7 9 12 13 10 7 6 7 6 6 8 8 8 7 7 6 5 5 5 5 5 5 5 6 6 5 4 4 3 3 3 3 2 2
3 3 3 3 4 7 6 1 2 2 6 5 7 7 5 1 4 7 5 5 7 7 5 5 4 3 4 5 5 5 5 6 7 7 6 5 5 4 4 4 3 2 2 3
4 4 6 7 7 10 8 3 3 2 5 2 3 5 4 5 7 7 7 7 7 6 6 5 4 5 5 4 5 6 6 8 7 5 4 4 4 4 4 3 2 2 2 2
8 7 8 7 8 10 5 6 7 8 4 4 5 6 7 8 9 9 8 8 7 6 6 5 5 6 5 5 6 7 8 7 4 4 4 4 4 4 3 3 2 2 2 2
9 10 7 11 12 6 4 8 6 3 6 7 7 8 8 9 10 10 9 8 8 7 7 5 6 6 5 6 7 9 7 5 5 5 5 4 4 3 3 3 3 2 2 2
6 5 5 8 12 12 11 10 10 10 10 10 10 9 8 11 12 11 10 9 8 7 7 5 5 6 7 7 8 8 6 5 6 6 5 4 4 4 3 3 3 3 3 3
7 5 5 9 10 10 8 7 8 8 8 9 9 9 10 11 12 11 10 9 8 7 6 5 7 8 9 7 7 7 6 6 6 6 5 5 4 4 3 3 4 4 4 5
8 9 9 11 9 7 10 8 8 10 11 11 11 11 10 10 11 11 10 8 7 7 6 6 7 8 8 7 7 6 6 7 7 6 5 4 4 4 3 3 3 5 5 7
Wind_Direction
26 59 54 32 53 120 122 113 99 340 357 3 269 276 281 275 244 240 236 225 227 236 250 213 51 25 15 10 7 2 1 357 359 358 355 352 354 351 358 3 2 360 357 356
47 42 348 59 78 86 91 94 58 359 10 10 308 285 276 259 235 228 222 217 218 227 243 251 349 19 7 359 358 359 1 356 359 355 341 326 321 331 346 354 359 1 359 358
89 352 6 74 66 77 65 97 103 358 348 24 344 312 293 278 247 246 230 217 212 210 218 237 260 297 332 339 343 351 352 354 355 351 353 351 352 339 349 353 353 355 358 360
64 17 55 67 53 77 72 47 113 66 35 334 25 310 287 275 281 252 237 222 221 217 215 230 246 267 280 294 316 333 344 351 352 356 9 14 10 351 333 333 336 343 356 359
50 31 53 61 32 75 131 72 83 75 85 345 353 215 284 297 268 255 238 225 224 219 217 229 236 241 255 269 291 316 339 348 354 3 6 10 2 335 325 335 340 344 350 357
46 23 56 82 44 70 97 65 62 51 61 321 247 189 279 243 227 250 241 228 224 220 222 232 238 240 252 261 283 309 337 340 347 357 1 3 350 344 346 345 344 344 345 348
16 13 14 58 66 34 61 71 29 2 2 265 248 220 252 249 234 233 244 244 231 218 219 229 238 241 246 250 261 281 302 315 328 341 348 348 340 339 340 334 336 340 342 342
57 330 325 12 125 133 93 117 142 210 259 291 293 243 256 255 259 250 245 243 231 223 223 228 232 235 241 242 241 246 258 273 295 316 326 336 337 333 325 324 324 327 327 325
121 278 326 338 85 133 122 129 153 135 210 286 279 281 297 262 263 253 250 247 243 238 234 235 238 237 238 236 233 230 239 252 267 283 301 319 326 325 321 319 320 318 319 322
141 256 314 332 71 32 128 144 107 128 213 289 294 276 258 270 257 260 253 251 253 249 245 245 241 238 238 234 234 229 228 235 245 255 268 292 302 306 310 320 327 325 321 323
112 141 313 343 204 195 144 148 136 131 165 197 289 279 227 225 237 243 251 251 250 249 247 245 245 241 238 233 225 225 227 230 239 245 254 277 292 301 311 318 317 317 318 324
124 123 271 260 250 194 188 188 159 171 223 203 235 272 262 233 250 247 259 266 260 251 249 247 246 243 237 232 228 226 227 228 233 231 237 256 274 293 307 309 311 314 316 317
141 118 341 345 350 62 234 210 185 162 155 188 209 262 294 281 279 262 262 271 269 261 257 251 246 241 238 234 231 228 227 228 227 214 220 248 267 278 286 293 304 312 314 320
127 164 195 219 236 204 240 226 188 174 200 227 231 255 279 284 287 286 278 271 267 261 256 251 248 245 241 235 229 226 229 222 214 206 214 235 251 258 269 284 298 308 316 325
119 233 245 256 259 249 245 241 215 212 213 226 248 250 267 266 264 268 269 270 269 266 259 249 245 245 242 236 230 225 226 216 205 204 218 235 245 251 261 278 294 309 319 324
108 242 293 282 268 262 264 251 233 233 233 241 260 272 271 272 262 263 267 264 264 264 258 253 250 247 241 233 228 224 224 214 198 207 223 232 235 244 255 266 277 295 310 318
177 176 308 282 309 315 275 244 209 207 211 209 237 249 273 282 270 260 262 263 262 262 260 254 248 244 240 231 219 219 219 204 198 211 220 223 225 238 251 259 271 286 298 314
165 158 231 297 342 271 250 211 186 210 238 219 235 255 265 265 273 268 258 254 260 258 255 253 248 245 240 226 215 209 197 194 202 212 218 220 219 233 244 245 259 271 278 288
172 162 206 270 293 282 293 261 187 203 272 228 229 252 265 285 310 294 262 237 244 250 252 250 244 242 234 223 205 189 195 196 203 214 220 219 214 223 232 243 256 262 268 277
131 150 183 204 254 260 261 219 167 128 285 255 207 241 264 330 316 287 286 281 273 269 263 258 255 240 229 220 184 187 202 203 217 220 219 213 208 214 226 234 242 246 254 266
146 180 210 220 242 267 261 231 134 198 262 295 217 246 247 232 246 274 289 283 272 271 268 258 244 235 231 206 182 201 209 221 224 212 206 206 207 213 219 220 222 235 252 278
185 188 201 196 219 254 229 154 190 226 280 299 281 266 259 262 273 282 279 273 272 273 268 254 243 245 235 200 193 212 224 227 207 196 200 206 207 211 206 201 219 223 226 257
206 200 197 203 221 248 203 211 240 266 285 285 279 277 271 274 278 282 278 271 266 261 259 249 239 247 243 214 203 219 228 203 190 194 205 209 206 205 199 198 210 220 221 236
250 207 217 252 261 264 266 263 269 265 263 272 273 274 271 273 278 279 278 273 267 264 258 249 240 244 248 228 219 223 215 189 186 200 208 206 204 210 208 211 209 212 222 234
235 202 226 255 271 289 280 266 273 279 279 279 279 273 269 272 276 274 275 271 266 264 258 241 236 243 247 236 228 222 202 185 193 202 205 205 205 204 210 220 220 222 223 222
208 211 222 252 254 258 280 286 290 289 288 290 292 291 281 268 271 273 271 266 262 261 256 249 245 246 247 233 230 222 201 189 191 204 208 206 202 202 206 221 252 253 249 259
Height
1504 1510 1517 1517 1516 1516 1519 1522 1524 1524 1522 1523 1522 1521 1516 1515 1515 1514 1514 1515 1515 1516 1517 1517 1517 1517 1516 1515 1514 1512 1511 1509 1507 1505 1503 1501 1500 1498 1497 1495 1494 1492 1491 1489
1512 1518 1518 1516 1517 1517 1520 1523 1525 1525 1523 1524 1524 1520 1514 1512 1512 1511 1511 1512 1513 1514 1515 1515 1516 1515 1514 1513 1512 1511 1509 1507 1505 1503 1502 1500 1498 1496 1495 1493 1491 1489 1488 1486
1518 1521 1517 1518 1519 1521 1525 1526 1527 1527 1526 1525 1526 1519 1513 1510 1510 1509 1509 1510 1511 1512 1513 1513 1513 1513 1513 1512 1510 1509 1507 1506 1504 1502 1500 1498 1496 1494 1492 1490 1489 1487 1485 1483
1520 1520 1520 1521 1523 1523 1527 1526 1526 1527 1530 1533 1532 1531 1516 1511 1510 1507 1507 1507 1508 1509 1510 1511 1511 1511 1511 1510 1509 1507 1506 1504 1502 1500 1498 1496 1494 1492 1490 1488 1486 1485 1483 1481
1524 1523 1523 1524 1525 1524 1527 1526 1528 1529 1531 1535 1534 1535 1520 1512 1508 1504 1503 1504 1505 1507 1508 1509 1509 1509 1509 1508 1507 1506 1504 1503 1501 1499 1497 1495 1493 1491 1489 1487 1485 1483 1481 1479
1525 1524 1525 1525 1525 1526 1526 1529 1531 1534 1536 1537 1532 1536 1523 1512 1504 1501 1500 1501 1502 1504 1505 1506 1507 1507 1506 1506 1505 1504 1502 1501 1499 1497 1495 1493 1491 1489 1487 1485 1483 1481 1479 1477
1528 1527 1526 1526 1527 1528 1529 1535 1542 1539 1544 1537 1531 1532 1520 1502 1500 1499 1498 1498 1499 1501 1502 1503 1504 1504 1504 1503 1503 1501 1500 1498 1497 1495 1493 1491 1489 1487 1485 1483 1481 1478 1476 1474
1532 1534 1528 1527 1528 1530 1531 1534 1541 1540 1543 1539 1533 1529 1510 1498 1496 1496 1496 1496 1497 1498 1499 1500 1501 1501 1501 1500 1500 1499 1497 1496 1495 1493 1491 1490 1487 1485 1483 1481 1479 1476 1474 1472
1533 1533 1529 1528 1528 1529 1531 1536 1537 1544 1544 1545 1534 1524 1507 1496 1495 1494 1494 1495 1495 1496 1497 1497 1498 1498 1498 1497 1496 1496 1494 1493 1492 1491 1489 1487 1485 1483 1481 1479 1477 1475 1473 1471
1530 1533 1530 1529 1529 1530 1531 1535 1541 1541 1539 1538 1531 1525 1512 1497 1494 1494 1493 1493 1493 1494 1494 1494 1494 1494 1494 1494 1493 1492 1491 1490 1489 1488 1487 1485 1483 1481 1479 1477 1475 1473 1471 1469
1529 1534 1533 1531 1530 1530 1533 1534 1536 1542 1542 1542 1536 1516 1498 1495 1492 1492 1491 1491 1491 1491 1491 1491 1491 1491 1490 1490 1489 1489 1488 1487 1486 1485 1484 1482 1480 1478 1477 1475 1473 1470 1468 1466
1531 1536 1537 1532 1528 1527 1529 1530 1535 1538 1538 1542 1540 1517 1491 1491 1489 1490 1489 1489 1489 1488 1488 1488 1487 1487 1486 1486 1485 1485 1484 1484 1483 1482 1481 1480 1478 1476 1474 1472 1470 1468 1466 1464
1530 1535 1536 1531 1532 1530 1528 1528 1530 1532 1536 1541 1539 1512 1490 1489 1488 1487 1487 1486 1486 1485 1484 1484 1483 1483 1482 1482 1482 1481 1481 1480 1480 1479 1478 1476 1475 1473 1471 1469 1467 1465 1463 1461
1528 1533 1536 1531 1525 1526 1527 1525 1526 1529 1532 1531 1521 1503 1491 1489 1488 1486 1485 1484 1482 1481 1480 1480 1479 1479 1478 1478 1477 1477 1477 1476 1476 1475 1474 1473 1472 1470 1468 1466 1465 1463 1461 1459
1528 1532 1531 1529 1526 1525 1522 1519 1520 1521 1518 1517 1505 1502 1487 1485 1485 1483 1481 1480 1478 1477 1476 1475 1474 1474 1473 1473 1473 1473 1472 1472 1472 1471 1471 1469 1468 1467 1465 1463 1462 1460 1458 1456
1528 1530 1530 1527 1522 1522 1518 1510 1512 1511 1509 1505 1500 1492 1480 1480 1480 1479 1477 1476 1474 1472 1471 1471 1470 1469 1469 1468 1468 1468 1468 1468 1468 1468 1467 1466 1465 1463 1462 1460 1459 1457 1455 1453
1530 1531 1530 1529 1524 1519 1510 1497 1499 1500 1497 1497 1496 1486 1478 1479 1477 1475 1473 1471 1469 1468 1467 1467 1466 1465 1465 1464 1464 1463 1464 1464 1464 1463 1463 1462 1461 1460 1458 1457 1455 1453 1452 1450
1529 1530 1531 1531 1527 1517 1495 1489 1490 1492 1489 1487 1483 1479 1477 1475 1473 1470 1469 1467 1465 1465 1464 1463 1462 1461 1460 1460 1459 1459 1459 1459 1459 1459 1459 1458 1457 1456 1455 1453 1452 1450 1448 1446
1524 1527 1531 1532 1530 1514 1493 1487 1487 1489 1484 1477 1478 1476 1474 1472 1470 1467 1465 1464 1463 1462 1460 1459 1458 1457 1456 1456 1455 1455 1454 1454 1454 1454 1454 1454 1453 1452 1451 1449 1448 1446 1445 1443
1524 1525 1529 1529 1526 1512 1487 1484 1483 1486 1482 1472 1472 1472 1471 1471 1472 1466 1463 1461 1460 1458 1457 1455 1454 1453 1452 1452 1451 1450 1450 1450 1450 1450 1450 1449 1448 1447 1446 1445 1444 1443 1441 1440
1524 1525 1525 1524 1521 1504 1485 1482 1483 1488 1478 1471 1470 1469 1469 1468 1467 1463 1460 1458 1456 1454 1453 1451 1450 1449 1448 1447 1446 1445 1445 1445 1445 1445 1445 1444 1444 1443 1442 1441 1440 1439 1438 1436
1516 1518 1518 1517 1516 1500 1478 1480 1481 1476 1471 1469 1468 1467 1465 1463 1460 1458 1455 1453 1451 1450 1448 1447 1445 1444 1443 1443 1441 1440 1440 1441 1441 1440 1440 1439 1439 1439 1438 1437 1436 1435 1434 1433
1507 1503 1502 1500 1490 1477 1474 1473 1471 1471 1469 1467 1465 1463 1461 1458 1455 1453 1450 1448 1446 1445 1443 1442 1440 1439 1438 1437 1436 1435 1436 1436 1435 1435 1435 1435 1434 1434 1433 1433 1432 1431 1430 1428
1497 1494 1495 1492 1479 1473 1471 1470 1469 1468 1465 1463 1461 1458 1456 1453 1449 1447 1445 1442 1441 1439 1438 1437 1435 1434 1433 1432 1431 1431 1431 1431 1430 1430 1430 1430 1429 1429 1429 1428 1427 1427 1425 1424
1491 1490 1489 1484 1474 1469 1465 1465 1464 1462 1460 1458 1455 1453 1450 1447 1443 1441 1439 1437 1435 1434 1432 1431 1429 1428 1427 1427 1426 1426 1426 1426 1425 1425 1425 1425 1424 1424 1424 1423 1423 1422 1421 1420
1481 1481 1481 1473 1467 1467 1462 1461 1460 1457 1454 1452 1449 1445 1443 1441 1438 1436 1433 1431 1430 1428 1427 1425 1424 1422 1421 1421 1420 1420 1420 1420 1420 1420 1420 1419 1419 1419 1419 1419 1418 1417 1417 1416